Location: Janeiro
(34.9957°N, 76.7652°W)
Time: 13:25:45
(UTC+00:00)

Cosmos 1943 - Pass Details

Date: 14 December 2019
Orbit: 835 x 848 km, 71.0° (Epoch: 19 January)

Event Time Altitude Azimuth Distance (km) Brightness Sun altitude
Rises 22:51:04 0° 176° (S) 3,381 6.6 -11.0°
Reaches altitude 10° 22:53:42 10° 167° (SSE) 2,448 5.7 -11.5°
Maximum altitude 22:58:42 34° 104° (ESE) 1,357 3.9 -12.5°
Enters shadow 23:02:31 16° 48° (NE) 2,074 4.7 -13.2°
